Wind_Speed
33 34 35 36 37 37 37 37 36 34 31 29 31 33 32 32 30 26 24 25 27 27 25 24 24 23 23 24 24 25 25 23 22 23 23 23 23 25 25 23 23 22
33 35 36 38 38 38 36 36 36 35 33 30 29 31 32 31 31 30 27 24 25 26 25 26 26 25 25 25 24 26 26 24 23 23 24 24 23 24 24 23 23 22
35 36 37 38 38 38 36 35 35 33 33 33 30 30 32 30 29 29 29 27 25 26 25 25 26 28 28 27 27 26 26 26 25 24 25 24 24 25 25 24 24 22
36 36 36 37 37 38 36 35 35 34 34 34 31 29 30 30 28 27 27 28 28 28 27 25 27 30 30 29 28 26 27 28 27 26 26 24 24 25 25 24 24 22
34 34 35 35 36 37 37 36 36 35 34 33 31 30 30 28 27 26 26 27 29 29 28 26 27 29 30 29 27 26 28 28 27 26 26 25 24 25 25 25 24 23
32 32 33 34 35 37 38 38 37 36 34 34 32 30 28 27 27 27 26 26 28 29 28 26 27 28 29 28 27 27 29 29 27 27 26 25 25 25 25 25 25 24
29 31 32 33 35 37 38 38 37 35 33 34 33 28 26 26 27 27 27 27 28 30 29 27 27 28 28 28 27 28 29 29 28 27 26 26 26 26 27 28 27 26
28 29 30 32 33 35 36 35 34 33 32 32 32 29 28 28 27 26 28 28 29 30 31 29 28 29 29 28 28 29 29 29 29 29 28 28 28 27 28 29 28 27
27 27 28 30 31 32 33 32 31 31 30 29 30 29 30 30 27 26 27 30 30 30 33 33 31 29 30 30 29 29 29 29 30 30 29 29 29 29 29 30 28 28
26 26 27 27 27 28 30 30 29 28 27 27 27 26 28 30 28 26 26 29 30 30 30 31 32 31 31 31 30 29 29 30 29 29 30 31 30 29 29 29 28 28
26 26 26 26 25 25 25 26 27 27 25 24 24 24 26 27 27 26 27 28 30 31 30 29 29 31 31 31 31 29 29 30 30 29 30 30 30 29 28 29 29 29
25 26 26 26 25 23 22 23 24 24 23 20 20 22 24 26 27 27 28 28 28 31 31 28 27 28 29 30 31 29 29 30 31 30 30 29 29 28 27 29 31 31
25 26 26 26 25 24 22 21 21 22 21 18 15 15 18 21 24 25 25 27 29 30 31 30 27 27 29 31 32 30 30 32 32 31 30 30 30 28 28 31 32 32
25 25 25 25 25 25 23 22 21 20 20 19 17 14 13 14 18 20 19 21 26 29 31 32 30 28 27 29 32 32 31 32 33 31 30 32 33 31 32 33 32 32
24 24 24 24 24 24 23 22 22 21 20 20 19 17 16 15 15 16 15 16 20 25 29 32 32 31 28 28 30 32 33 34 34 32 31 32 35 35 34 33 32 32
23 23 23 23 23 24 23 22 22 22 22 21 20 19 19 18 17 17 16 16 17 21 26 29 31 31 30 29 30 31 33 34 35 35 33 31 33 35 34 32 32 33
23 22 22 22 23 24 24 23 22 22 22 22 21 21 21 20 20 19 18 18 18 20 23 26 28 29 29 30 31 31 32 33 33 35 34 32 33 34 33 32 32 33
24 24 23 24 24 25 25 25 24 22 22 22 23 23 23 23 22 22 21 21 21 22 23 24 27 28 27 29 30 31 32 32 32 33 34 34 33 31 30 31 32 33
27 27 27 27 27 27 27 27 26 24 23 23 23 24 24 24 24 24 24 24 24 25 24 25 27 27 26 28 29 30 31 32 32 32 33 33 32 32 33 34 34 35
30 30 30 30 30 29 29 28 28 26 25 24 24 25 25 25 25 25 25 25 25 26 26 26 28 27 27 28 28 28 29 31 33 33 33 33 33 34 37 37 35 36
32 32 31 31 31 30 30 30 29 28 27 26 26 26 26 26 26 26 26 26 26 27 27 27 28 28 28 28 28 28 28 29 32 35 35 36 35 35 36 35 35 36
33 32 31 31 31 31 30 30 30 30 29 29 28 28 28 28 28 27 27 27 27 27 27 27 27 28 29 29 28 28 28 28 31 35 36 36 36 38 38 37 37 36
34 33 33 32 32 32 32 31 31 31 31 31 30 29 29 29 29 29 28 28 28 28 28 28 28 27 29 30 29 28 28 29 31 34 35 34 36 40 42 42 40 37
37 36 36 36 35 34 34 34 33 33 33 33 33 32 31 30 30 30 30 29 29 29 28 29 29 29 29 30 30 29 28 29 31 33 34 35 38 42 43 42 41 40
40 39 39 38 37 36 36 36 36 36 35 35 35 35 35 34 32 32 31 31 31 31 31 30 30 30 31 31 30 30 28 29 31 34 36 38 40 43 45 44 41 41
41 41 40 39 39 38 37 36 36 37 37 37 37 37 37 37 36 35 34 33 33 34 33 32 31 31 32 32 32 32 31 30 30 31 33 37 40 44 46 46 45 45
Wind_Direction
296 296 296 295 294 292 291 291 291 292 288 277 270 270 270 270 272 274 269 259 254 254 252 253 255 253 250 250 250 246 240 238 239 238 242 249 249 245 243 244 247 249
294 293 293 294 294 294 292 290 289 288 289 286 276 269 270 272 270 269 272 268 260 257 255 253 255 252 248 248 247 243 243 243 239 239 245 250 248 244 244 248 250 250
292 292 292 292 294 295 294 291 288 283 281 285 283 273 268 269 268 267 269 269 265 262 262 257 254 252 250 248 244 242 242 241 240 244 247 246 244 243 245 247 249 251
292 291 291 292 293 294 293 291 288 283 281 282 282 278 271 266 265 265 264 265 264 264 266 263 255 253 253 249 243 242 241 238 242 247 246 243 242 242 244 246 247 249
291 290 291 292 293 292 292 290 287 286 286 284 279 276 274 267 263 262 262 262 263 262 266 267 259 253 253 251 246 242 240 239 242 246 243 240 239 240 242 244 247 250
291 292 293 294 293 293 292 290 288 288 290 290 283 272 268 265 262 260 261 262 262 261 263 267 262 255 253 253 249 244 242 242 244 244 240 237 235 236 242 247 249 252
294 295 294 294 294 294 294 294 293 291 289 289 284 273 265 264 262 261 261 263 262 260 261 264 262 257 255 255 252 246 243 243 245 245 240 236 234 236 245 252 252 252
294 294 293 294 295 296 298 299 298 296 293 287 282 275 269 263 259 257 257 259 260 257 258 261 260 257 256 256 255 250 246 245 244 242 239 238 238 241 250 254 251 251
294 294 293 295 298 301 303 304 302 300 296 286 276 272 270 264 256 252 251 251 252 252 254 257 260 260 257 256 257 253 250 247 243 240 241 242 242 244 250 251 250 252
296 295 295 297 301 305 308 310 308 306 298 284 270 264 264 260 256 254 251 248 248 249 254 257 261 263 259 255 255 253 250 248 245 243 243 244 243 241 244 248 250 253
296 297 298 300 303 308 314 315 315 314 305 285 269 261 258 255 253 253 252 250 247 247 254 260 261 263 260 254 251 250 249 246 246 246 244 243 243 238 240 248 252 254
297 298 300 303 306 310 315 317 317 316 311 291 269 260 258 256 255 255 253 251 247 246 251 255 256 259 260 255 252 252 250 246 244 244 244 244 241 236 240 249 254 256
297 299 301 304 308 311 314 317 316 315 315 307 288 271 264 259 258 257 255 251 248 247 249 251 255 258 258 258 257 254 252 249 245 242 243 245 241 236 241 250 253 254
297 298 301 304 308 312 315 317 318 317 316 314 310 303 293 279 264 258 258 256 250 248 249 252 256 259 258 257 257 254 251 249 247 245 244 245 244 241 243 248 251 252
294 296 298 302 306 309 313 316 317 317 316 313 312 309 305 300 285 271 270 272 261 252 251 253 254 255 257 257 256 253 249 247 248 248 247 248 249 248 248 249 250 252
289 291 294 298 302 305 308 312 313 313 313 310 308 305 301 299 295 288 283 281 274 263 260 258 256 256 259 260 258 254 249 247 247 249 250 251 251 250 250 250 251 252
283 285 288 292 297 300 302 305 307 308 308 306 304 301 299 296 294 293 289 284 280 278 273 266 262 261 262 262 260 257 253 248 247 248 249 250 250 249 249 253 254 253
278 279 282 287 291 294 297 298 300 301 302 301 299 297 295 294 293 291 290 286 283 284 282 275 271 269 267 265 263 259 254 249 246 246 245 247 250 250 250 255 257 255
279 279 280 283 286 288 291 292 292 293 294 294 295 293 291 290 289 289 288 287 285 286 285 281 280 278 273 270 267 263 256 250 246 245 243 244 247 248 249 253 255 254
280 281 281 282 283 284 285 285 286 286 286 286 287 288 288 286 286 285 285 285 285 286 286 285 285 283 278 275 272 268 261 253 249 246 242 242 245 246 248 251 252 252
280 281 282 283 283 284 283 282 281 281 281 280 281 282 283 284 283 283 282 283 283 284 285 285 286 286 284 280 274 269 265 259 254 249 246 245 247 249 249 249 250 251
281 281 282 282 283 284 283 281 279 279 278 278 277 277 278 280 280 280 280 281 282 282 282 284 285 286 285 281 275 269 267 265 259 253 248 247 248 251 252 250 251 253
279 280 281 282 282 282 282 281 279 278 277 277 277 276 276 276 277 277 277 278 280 281 282 283 284 284 282 280 276 270 266 266 263 256 250 247 248 249 250 250 249 249
277 278 280 280 280 280 280 280 280 278 277 277 277 277 276 275 274 275 276 277 279 281 282 283 284 283 282 281 279 274 269 267 266 260 254 251 249 247 246 245 245 244
279 280 280 280 280 279 279 278 278 277 276 276 277 277 277 276 275 274 274 275 278 280 282 283 283 283 283 282 281 276 271 267 267 266 263 259 253 245 242 242 243 244
281 282 282 282 281 280 279 278 277 276 276 275 275 275 276 276 276 275 274 274 276 278 280 280 281 281 281 282 281 278 274 271 269 270 269 263 251 242 241 244 244 245
Height
5782 5781 5779 5777 5776 5776 5775 5773 5773 5773 5773 5772 5772 5772 5772 5773 5774 5774 5773 5773 5772 5772 5774 5774 5774 5774 5775 5775 5775 5775 5775 5776 5778 5780 5781 5783 5784 5784 5784 5786 5788 5788
5780 5778 5777 5775 5773 5773 5772 5771 5769 5770 5770 5768 5768 5767 5768 5770 5771 5771 5771 5771 5770 5770 5772 5773 5772 5772 5772 5772 5772 5773 5773 5774 5775 5778 5780 5780 5781 5782 5782 5784 5785 5786
5777 5776 5774 5772 5770 5768 5768 5767 5765 5765 5765 5764 5764 5763 5764 5765 5767 5768 5768 5768 5768 5768 5768 5770 5770 5769 5768 5768 5769 5770 5771 5772 5773 5775 5777 5777 5779 5780 5780 5782 5783 5784
5774 5773 5771 5770 5768 5765 5763 5763 5761 5760 5760 5761 5761 5760 5760 5761 5763 5765 5766 5766 5766 5766 5765 5766 5766 5765 5765 5765 5766 5768 5769 5770 5771 5773 5773 5774 5776 5777 5778 5779 5780 5780
5771 5770 5768 5767 5765 5762 5760 5759 5758 5756 5756 5757 5757 5757 5757 5758 5758 5760 5762 5763 5763 5763 5763 5763 5762 5762 5762 5762 5764 5766 5766 5767 5769 5769 5770 5771 5772 5772 5774 5776 5777 5777
5768 5767 5765 5763 5761 5759 5757 5755 5754 5754 5754 5754 5753 5753 5753 5754 5755 5756 5758 5759 5760 5760 5760 5759 5759 5759 5759 5760 5762 5763 5764 5765 5766 5766 5767 5768 5769 5769 5771 5772 5774 5774
5765 5764 5762 5761 5759 5756 5754 5752 5751 5750 5751 5751 5751 5750 5750 5751 5752 5754 5756 5756 5757 5757 5757 5756 5756 5756 5756 5758 5759 5761 5762 5763 5764 5764 5765 5766 5766 5767 5768 5770 5771 5772
5763 5761 5760 5758 5756 5754 5751 5749 5748 5747 5747 5747 5748 5748 5748 5748 5748 5750 5752 5753 5754 5755 5754 5753 5753 5753 5753 5755 5756 5758 5759 5760 5761 5761 5762 5763 5763 5765 5766 5766 5768 5769
5760 5759 5757 5755 5753 5751 5749 5747 5745 5744 5744 5743 5743 5744 5744 5744 5743 5744 5746 5747 5749 5749 5749 5749 5750 5750 5751 5752 5753 5755 5756 5756 5756 5757 5759 5760 5760 5761 5762 5763 5764 5765
5757 5756 5755 5753 5751 5749 5746 5744 5742 5741 5740 5740 5739 5739 5739 5739 5740 5740 5741 5742 5743 5744 5744 5745 5747 5747 5748 5748 5749 5751 5752 5753 5753 5755 5756 5756 5757 5758 5758 5758 5760 5762
5755 5753 5752 5750 5749 5747 5745 5743 5741 5739 5738 5737 5736 5736 5736 5736 5736 5737 5738 5739 5740 5741 5742 5742 5744 5744 5744 5745 5745 5747 5749 5749 5750 5751 5752 5753 5754 5754 5755 5755 5756 5758
5752 5750 5749 5747 5746 5745 5743 5741 5740 5738 5737 5735 5734 5734 5733 5733 5734 5735 5736 5737 5738 5739 5739 5739 5741 5742 5742 5742 5742 5743 5745 5745 5747 5748 5748 5750 5751 5751 5752 5753 5754 5754
5749 5748 5746 5745 5743 5742 5741 5740 5739 5737 5736 5735 5733 5732 5731 5731 5731 5732 5733 5734 5735 5736 5736 5736 5736 5738 5739 5739 5738 5739 5740 5740 5742 5744 5745 5746 5747 5748 5749 5750 5750 5751
5747 5745 5743 5742 5740 5739 5738 5738 5737 5735 5734 5733 5732 5731 5729 5729 5728 5729 5730 5731 5732 5732 5732 5732 5732 5733 5735 5735 5735 5735 5735 5735 5736 5740 5741 5742 5743 5745 5746 5746 5747 5747
5744 5743 5741 5739 5738 5736 5735 5735 5734 5733 5732 5731 5730 5729 5728 5727 5726 5727 5728 5729 5729 5729 5729 5729 5729 5729 5730 5730 5730 5730 5731 5731 5732 5735 5737 5738 5739 5740 5741 5742 5743 5743
5742 5741 5739 5737 5736 5734 5733 5732 5732 5731 5730 5729 5729 5728 5727 5726 5725 5725 5726 5726 5726 5726 5726 5725 5725 5725 5726 5726 5726 5726 5727 5728 5729 5731 5733 5734 5735 5735 5736 5738 5738 5739
5739 5738 5737 5735 5734 5732 5731 5730 5729 5729 5728 5727 5726 5726 5725 5724 5724 5723 5723 5723 5723 5723 5722 5721 5721 5722 5722 5722 5722 5723 5723 5725 5726 5727 5728 5729 5730 5731 5732 5733 5734 5735
5737 5736 5735 5733 5732 5730 5729 5727 5727 5726 5726 5725 5724 5723 5723 5722 5722 5721 5721 5720 5720 5719 5719 5718 5717 5718 5718 5718 5718 5719 5719 5721 5722 5723 5724 5725 5725 5727 5728 5729 5730 5731
5734 5733 5732 5731 5730 5728 5727 5726 5724 5723 5723 5722 5722 5721 5720 5720 5719 5719 5719 5718 5717 5716 5715 5714 5714 5714 5715 5715 5715 5715 5716 5717 5718 5719 5720 5722 5723 5724 5725 5726 5727 5728
5730 5729 5729 5728 5727 5726 5724 5723 5722 5721 5720 5719 5718 5718 5718 5717 5717 5716 5716 5715 5715 5714 5713 5712 5712 5712 5712 5712 5712 5712 5713 5714 5715 5716 5717 5718 5719 5721 5722 5723 5724 5725
5726 5725 5725 5724 5723 5722 5721 5720 5719 5718 5717 5716 5715 5714 5714 5714 5714 5713 5713 5712 5712 5711 5710 5709 5709 5709 5709 5709 5709 5709 5709 5710 5711 5712 5713 5714 5715 5717 5718 5719 5719 5720
5721 5721 5720 5720 5719 5718 5717 5716 5715 5714 5713 5712 5711 5711 5710 5710 5710 5710 5709 5709 5708 5708 5707 5706 5705 5705 5705 5705 5705 5705 5706 5706 5707 5707 5709 5711 5712 5713 5714 5714 5714 5715
5717 5716 5716 5715 5715 5714 5713 5712 5712 5711 5710 5709 5708 5707 5706 5706 5706 5706 5706 5705 5705 5704 5704 5703 5702 5702 5701 5701 5701 5701 5702 5702 5702 5703 5704 5707 5708 5707 5708 5708 5709 5710
5713 5712 5711 5711 5710 5710 5709 5708 5708 5707 5706 5705 5704 5703 5702 5702 5702 5701 5701 5701 5701 5700 5700 5699 5699 5698 5698 5697 5697 5698 5698 5698 5699 5699 5700 5702 5702 5702 5702 5702 5703 5705
5708 5707 5706 5706 5705 5705 5704 5704 5703 5702 5702 5701 5700 5699 5698 5697 5697 5696 5696 5696 5696 5696 5696 5695 5695 5694 5694 5693 5693 5693 5694 5694 5695 5695 5695 5696 5696 5696 5696 5695 5696 5698
5702 5701 5701 5700 5700 5699 5699 5699 5698 5698 5697 5696 5695 5694 5693 5693 5692 5691 5691 5691 5691 5691 5691 5691 5691 5690 5690 5689 5689 5689 5689 5690 5690 5689 5689 5689 5690 5690 5690 5690 5691 5693